[[{"header":{"parameterUnit":"m.s-1","parameterCategory":1,"la1":30.2991,"la2":30.254,"lo1":-89.0895,"lo2":-89.0444,"dy":0.0017,"dx":0.0017,"nx":28,"ny":28,"refTime":"2024-12-11T09:00:00:Z","depth":0,"parameterNumber":2,"parameterNumberName":"U-component_of_WINDS"},"data":[0,0,0,0,0,0,0,0,0,0,0,0,0,0,0,0,0,0,0,0,0,0,0,0,0,0,0,0,0,0,0,0,0,0,0,0,0,0,0,0,0,0,0,0,0,0,0,0,0,0,0,0,0,0,0,0,0,0,3.0094,3.0094,0,3.0093,3.0093,3.0093,3.002,3.0018,3.0016,3.0015,3.0015,3.0016,3.0018,0,0,0,0,0,0,0,0,0,0,0,0,0,3.0039,3.0041,3.0094,3.0094,3.0094,3.0093,3.0093,3.0093,3.002,3.0018,3.0016,3.0014,3.0014,3.0016,3.0018,0,0,0,0,0,0,0,0,0,0,0,0,0,3.0053,3.0041,3.0094,3.0058,3.0055,3.0093,3.0093,3.0093,3.0021,3.0018,3.0015,3.0013,3.0013,3.0016,3.0019,3.0092,0,0,3.0027,3.0028,0,0,0,0,0,0,0,0,3.0052,3.0055,3.0063,3.0061,3.0057,3.0054,3.0073,3.0092,3.0022,3.0034,3.0014,3.0011,3.003,3.0031,3.0037,3.0092,3.0092,3.0027,3.0029,3.003,3.0031,0,0,0,0,0,0,0,3.0051,3.0055,3.0094,3.0064,3.006,3.0043,3.0042,3.0076,3.0048,3.0033,3.0027,3.0028,3.0028,3.0035,3.0037,3.0092,3.0027,3.0029,3.0031,3.0032,3.021,3.0213,0,0,0,0,0,0,3.0055,3.0054,3.0094,3.0094,3.0048,3.0047,3.0045,3.0058,3.0047,3.0043,3.003,3.0025,3.0032,3.0034,3.0036,3.0123,3.003,3.0032,3.0034,3.0207,3.021,3.0214,0,0,0,0,0,0,3.0054,3.0059,3.0094,3.0073,3.0076,3.005,3.0065,3.0059,3.0066,3.0046,3.0041,3.0043,3.003,3.0033,3.0079,3.0122,3.0033,3.0036,3.0203,3.0208,3.0212,3.0297,0,0,0,0,0,0,3.0053,3.0059,3.0086,3.0074,3.0077,3.0136,3.0068,3.0061,3.007,3.0063,3.0056,3.0052,3.0028,3.0076,3.0082,3.0124,3.0038,3.0199,3.0205,3.0211,3.029,3.0304,3.0316,0,0,0,0,0,3.0051,3.0109,3.0087,3.0093,3.011,3.0138,3.014,3.0111,3.0074,3.0102,3.0089,3.0052,3.0117,3.0081,3.0087,3.0131,3.0196,3.0203,3.021,3.0285,3.0301,3.0316,0,0,0,0,0,0,3.0127,3.0107,3.0082,3.0138,3.0141,3.0126,3.0159,3.0129,3.0142,3.0134,3.0098,3.0097,3.015,3.0145,3.0106,3.0203,3.015,3.0159,3.0205,3.022,3.0233,3.0233,3.004,0,0,0,0,0,3.015,3.0174,3.0156,3.0207,3.021,3.0185,3.0196,3.0173,3.0174,3.0175,3.0165,3.0169,3.019,3.0205,3.0223,3.0289,3.0288,3.0323,3.0336,3.0346,3.0355,3.0393,3.0409,3.0237,3.0237,3.0237,0,0,3.0199,3.0191,3.0208,3.0222,3.0221,3.0249,3.0186,3.0216,3.0237,3.018,3.0223,3.0217,3.0218,3.0276,3.0301,3.0274,3.0402,3.0355,3.0364,3.0367,3.0401,3.0418,3.0432,3.0242,3.0241,3.024,0,0,3.0301,3.0296,3.034,3.0341,3.034,3.0323,3.0334,3.0325,3.0319,3.0362,3.032,3.0345,3.0381,3.0385,3.0391,3.0499,3.0466,3.0505,3.0573,3.061,3.0624,3.0635,3.0676,3.0691,3.0514,3.0514,3.0514,0,3.0361,3.0399,3.0366,3.0401,3.0409,3.0359,3.0404,3.0407,3.0413,3.0421,3.039,3.0437,3.0434,3.0493,3.052,3.0526,3.0539,3.0506,3.0624,3.0636,3.0646,3.0685,3.07,3.0519,3.0518,3.0518,3.0517,0,3.0475,3.0503,3.0538,3.0546,3.0558,3.0598,3.0572,3.0589,3.0566,3.0554,3.06,3.0595,3.0613,3.0625,3.0602,3.0682,3.0666,3.063,3.0576,3.0668,3.0704,3.0718,3.0526,3.0524,3.0523,3.0521,0,0,3.0624,3.0614,3.0628,3.0632,3.0629,3.065,3.0689,3.0706,3.0723,3.0729,3.0762,3.0796,3.0764,3.0772,3.0749,3.0782,3.087,3.0742,3.0742,3.0768,3.0961,3.0989,3.1006,3.0848,3.0851,3.0853,3.0962,0,3.0725,3.0789,3.0762,3.083,3.0856,3.081,3.0844,3.0847,3.0837,3.0859,3.0848,3.0874,3.0828,3.0833,3.0863,3.0853,3.0909,3.0844,3.0881,3.0882,3.0883,3.1024,3.1053,3.1156,3.0975,3.0977,3.0979,0,3.085,3.0863,3.0934,3.0929,3.0939,3.097,3.0985,3.1006,3.101,3.1,3.101,3.0981,3.1021,3.0967,3.1022,3.098,3.0993,3.0991,3.0994,3.0997,3.0937,3.1033,3.1187,3.1204,3.1,3.0998,3.0997,0,3.0955,3.0989,3.1037,3.1041,3.1036,3.1059,3.1058,3.1059,3.1072,3.1086,3.1094,3.1113,3.1123,3.1139,3.1116,3.1079,3.1176,3.1119,3.1171,3.1172,3.1195,3.1194,3.1355,3.1201,3.1201,3.12,3.12,0,3.1071,3.1117,3.1084,3.1113,3.1164,3.1133,3.1185,3.1179,3.118,3.1209,3.117,3.1198,3.1166,3.1192,3.1175,3.1225,3.123,3.1225,3.122,3.1229,3.123,3.1238,3.1231,3.1204,3.1203,3.1203,3.1202,0,3.1197,3.1176,3.1225,3.1217,3.1216,3.1254,3.1247,3.1275,3.1263,3.1301,3.1308,3.1289,3.1317,3.1297,3.1325,3.1313,3.138,3.1364,3.1379,3.1376,3.143,3.1426,3.1603,3.1626,3.1455,3.1457,3.1458,0,3.1273,3.1307,3.1303,3.1319,3.1321,3.1348,3.1361,3.1333,3.1349,3.1357,3.1385,3.141,3.1429,3.1477,3.1467,3.1489,3.1475,3.1536,3.1478,3.1487,3.1479,3.1478,3.1482,3.1548,3.155,3.1551,3.1553,0,3.1411,3.14,3.142,3.1439,3.1456,3.1469,3.1479,3.1495,3.1466,3.1487,3.1516,3.1531,3.156,3.1587,3.1606,3.1606,3.1576,3.1571,3.1585,3.1595,3.1603,3.1602,3.1413,3.1567,3.1566,3.1565,3.1564,3.1563,3.1516,3.1545,3.1547,3.1573,3.1577,3.1588,3.1615,3.1607,3.163,3.1652,3.1634,3.1669,3.1675,3.1697,3.1701,3.173,3.1705,3.1724,3.1729,3.1735,3.1744,3.1598,3.1733,3.1733,3.1732,3.1732,3.1731,0,3.1654,3.1653,3.1677,3.1693,3.1713,3.1682,3.1693,3.1712,3.1744,3.1751,3.1771,3.1806,3.1832,3.1825,3.1849,3.1873,3.186,3.1881,3.188,3.1881,3.1763,3.175,3.1891,3.1891,3.1891,3.1891,3.1891,3.1891,3.1728,3.1777,3.1767,3.1819,3.1818,3.1853,3.1862,3.1872,3.1878,3.1919,3.1941,3.1935,3.1938,3.1962,3.1986,3.1983,3.1995,3.2021,3.2014,3.1904,3.1889,3.1874,3.1861,3.2023,3.2023,3.2129,3.213,3.2131]},{"header":{"parameterUnit":"m.s-1","parameterCategory":1,"la1":30.2991,"la2":30.254,"lo1":-89.0895,"lo2":-89.0444,"dy":0.0017,"dx":0.0017,"nx":28,"ny":28,"refTime":"2024-12-11T09:00:00:Z","depth":0,"parameterNumber":3,"parameterNumberName":"V-component_of_WINDS"},"data":[0,0,0,0,0,0,0,0,0,0,0,0,0,0,0,0,0,0,0,0,0,0,0,0,0,0,0,0,0,0,0,0,0,0,0,0,0,0,0,0,0,0,0,0,0,0,0,0,0,0,0,0,0,0,0,0,0,0,-4.8753,-4.8755,0,-4.892,-4.8922,-4.8924,-4.8925,-4.8923,-4.8921,-4.8919,-4.9092,-4.9098,-4.9105,0,0,0,0,0,0,0,0,0,0,0,0,0,-4.844,-4.8446,-4.8753,-4.8755,-4.8757,-4.892,-4.8922,-4.8924,-4.8925,-4.8923,-4.892,-4.8918,-4.9089,-4.9097,-4.9105,0,0,0,0,0,0,0,0,0,0,0,0,0,-4.8588,-4.8448,-4.8753,-4.8777,-4.8781,-4.8919,-4.8922,-4.8925,-4.8926,-4.8923,-4.8919,-4.8916,-4.9087,-4.9096,-4.9106,-4.9232,0,0,-4.9136,-4.9141,0,0,0,0,0,0,0,0,-4.858,-4.86,-4.8771,-4.8776,-4.878,-4.8898,-4.8875,-4.9028,-4.8927,-4.8871,-4.8918,-4.8915,-4.903,-4.9044,-4.9083,-4.924,-4.9247,-4.9137,-4.9143,-4.9148,-4.915,0,0,0,0,0,0,0,-4.857,-4.8593,-4.8819,-4.8774,-4.8779,-4.8782,-4.8799,-4.8904,-4.8966,-4.8876,-4.8876,-4.8896,-4.9032,-4.9073,-4.9087,-4.925,-4.9137,-4.9146,-4.9152,-4.9156,-4.9523,-4.9527,0,0,0,0,0,0,-4.8554,-4.8584,-4.8814,-4.8824,-4.867,-4.879,-4.8809,-4.8864,-4.8965,-4.8978,-4.8898,-4.8895,-4.9058,-4.9075,-4.9093,-4.925,-4.9147,-4.9157,-4.9162,-4.9519,-4.9524,-4.9528,0,0,0,0,0,0,-4.8547,-4.8574,-4.8807,-4.8704,-4.8734,-4.8799,-4.886,-4.8869,-4.891,-4.8982,-4.8994,-4.8929,-4.9056,-4.9079,-4.9198,-4.9256,-4.9161,-4.917,-4.9515,-4.9521,-4.9526,-4.9563,0,0,0,0,0,0,-4.8538,-4.8572,-4.8619,-4.8705,-4.874,-4.8908,-4.8863,-4.8874,-4.8927,-4.8924,-4.9014,-4.9026,-4.9055,-4.9183,-4.9208,-4.9268,-4.9178,-4.951,-4.9517,-4.9524,-4.9557,-4.9569,-4.9579,0,0,0,0,0,-4.8527,-4.8622,-4.8621,-4.8649,-4.8799,-4.8911,-4.8931,-4.8962,-4.8931,-4.898,-4.9028,-4.9023,-4.9245,-4.9195,-4.9223,-4.9287,-4.9506,-4.9515,-4.9524,-4.9551,-4.9567,-4.9579,0,0,0,0,0,0,-4.8541,-4.8634,-4.8634,-4.8759,-4.8827,-4.8911,-4.8973,-4.8976,-4.9055,-4.9049,-4.9085,-4.9106,-4.9226,-4.9268,-4.9211,-4.9416,-4.9372,-4.9387,-4.9384,-4.9399,-4.941,-4.9398,-4.9186,0,0,0,0,0,-4.8558,-4.864,-4.8717,-4.8821,-4.8855,-4.8908,-4.8958,-4.8977,-4.9049,-4.9078,-4.9133,-4.9205,-4.9291,-4.9347,-4.943,-4.9562,-4.9584,-4.962,-4.9632,-4.9641,-4.9653,-4.9731,-4.9749,-4.9556,-4.9556,-4.9556,0,0,-4.8595,-4.8656,-4.8705,-4.8825,-4.888,-4.8966,-4.8933,-4.9024,-4.9089,-4.9092,-4.9209,-4.9252,-4.9334,-4.9462,-4.9521,-4.9501,-4.9712,-4.9652,-4.9658,-4.9666,-4.9742,-4.976,-4.9776,-4.9562,-4.9561,-4.956,0,0,-4.8707,-4.876,-4.8854,-4.891,-4.8994,-4.903,-4.9053,-4.9137,-4.9166,-4.9284,-4.9289,-4.9368,-4.9514,-4.9574,-4.9623,-4.9762,-4.9763,-4.9788,-4.9849,-4.9924,-4.9939,-4.9953,-5.0006,-5.0024,-4.98,-4.98,-4.98,0,-4.8743,-4.8872,-4.8902,-4.8995,-4.9049,-4.9056,-4.9153,-4.9207,-4.9313,-4.9352,-4.9327,-4.9515,-4.957,-4.9714,-4.9748,-4.9787,-4.9817,-4.9779,-4.9934,-4.9948,-4.9962,-5.0013,-5.0033,-4.9803,-4.9803,-4.9803,-4.9802,0,-4.8914,-4.9003,-4.9069,-4.9173,-4.9234,-4.9329,-4.9376,-4.9435,-4.9448,-4.9487,-4.9609,-4.9676,-4.9775,-4.981,-4.9824,-4.9958,-4.9943,-4.9926,-4.9884,-4.9983,-5.0032,-5.0051,-4.9807,-4.9806,-4.9805,-4.9805,0,0,-4.9038,-4.916,-4.9184,-4.9233,-4.9327,-4.9398,-4.9494,-4.9591,-4.9643,-4.9716,-4.9801,-4.9926,-4.9913,-4.9969,-4.999,-5.0056,-5.0167,-5.0031,-5.0034,-5.0057,-5.0323,-5.0337,-5.0359,-5.0167,-5.017,-5.0173,-5.0317,0,-4.9163,-4.9333,-4.9365,-4.9515,-4.96,-4.9609,-4.9694,-4.9762,-4.9802,-4.9882,-4.9926,-5.0016,-4.9989,-5.0024,-5.0089,-5.0139,-5.0221,-5.0129,-5.0248,-5.0252,-5.023,-5.0384,-5.0398,-5.053,-5.0336,-5.0339,-5.0341,0,-4.9331,-4.9411,-4.9569,-4.9655,-4.9692,-4.9768,-4.9861,-4.9936,-5.0015,-5.004,-5.0105,-5.0119,-5.0223,-5.0174,-5.0319,-5.0256,-5.0307,-5.0339,-5.0345,-5.036,-5.0304,-5.0405,-5.0572,-5.0594,-5.0371,-5.0369,-5.0367,0,-4.941,-4.9557,-4.9671,-4.9713,-4.9816,-4.9869,-4.9915,-4.9991,-5.0048,-5.013,-5.0169,-5.0261,-5.0313,-5.0386,-5.0426,-5.0386,-5.057,-5.0524,-5.0596,-5.0596,-5.0636,-5.0634,-5.0817,-5.0664,-5.0664,-5.0663,-5.0663,0,-4.9548,-4.9645,-4.9709,-4.978,-4.989,-4.9927,-5.0036,-5.0081,-5.015,-5.0231,-5.0244,-5.0321,-5.0369,-5.0453,-5.0485,-5.0603,-5.0625,-5.0651,-5.0659,-5.0651,-5.0649,-5.0687,-5.068,-5.0669,-5.0667,-5.0666,-5.0666,0,-4.9656,-4.9702,-4.9828,-4.9916,-4.9941,-5.0019,-5.0095,-5.0166,-5.0206,-5.031,-5.0336,-5.04,-5.0501,-5.0548,-5.0672,-5.0694,-5.083,-5.0829,-5.0803,-5.0806,-5.0878,-5.0872,-5.1095,-5.1128,-5.095,-5.0951,-5.0952,0,-4.9741,-4.9817,-4.9914,-4.9969,-5.0017,-5.0105,-5.0165,-5.0205,-5.0266,-5.0365,-5.0425,-5.0525,-5.0609,-5.0769,-5.0828,-5.0925,-5.0929,-5.1001,-5.0944,-5.0936,-5.0935,-5.0931,-5.0941,-5.1012,-5.1013,-5.1015,-5.1016,0,-4.989,-4.991,-4.9994,-5.0089,-5.0159,-5.0235,-5.0309,-5.0354,-5.0407,-5.0476,-5.0579,-5.0644,-5.0772,-5.0874,-5.0975,-5.1024,-5.1031,-5.1033,-5.1056,-5.1051,-5.1034,-5.1048,-5.0834,-5.1028,-5.1027,-5.1026,-5.1026,-5.1025,-4.9992,-5.0061,-5.0141,-5.0236,-5.0297,-5.0367,-5.0439,-5.0489,-5.0575,-5.0683,-5.0701,-5.0812,-5.0894,-5.103,-5.1083,-5.1173,-5.1156,-5.1188,-5.1196,-5.1205,-5.1211,-5.1017,-5.1191,-5.119,-5.119,-5.119,-5.1189,0,-5.0145,-5.0197,-5.0284,-5.0389,-5.0465,-5.0463,-5.0546,-5.0611,-5.0708,-5.0783,-5.0865,-5.0986,-5.1086,-5.1153,-5.1255,-5.1314,-5.132,-5.1339,-5.1337,-5.1349,-5.1217,-5.1189,-5.1333,-5.1333,-5.1333,-5.1333,-5.1333,-5.1333,-5.0233,-5.0351,-5.0382,-5.0531,-5.0583,-5.0692,-5.0741,-5.0807,-5.0867,-5.1002,-5.1085,-5.1128,-5.1202,-5.1309,-5.1402,-5.142,-5.1458,-5.1479,-5.1497,-5.1373,-5.1358,-5.1344,-5.1318,-5.1486,-5.1486,-5.1622,-5.1623,-5.1624]}]]